sat.trackr.live / text

‹ back to catalog

YAOGAN-36 02B

NORAD 54043 · 2022-133B

PAYLOAD ACTIVE UNKNOWN

§ Identity

Operator
Country
PRC
Launch date
2022-10-14
Launch site
XICLF
Launch vehicle
Mass (kg)
RCS (m²)

External: N2YO · Heavens-Above · Gunter

§ Orbital elements

Epoch: 2026-09-20T22:26:27.112992Z

Period
93.85 min
Inclination
34.9944°
Eccentricity
0.0005771
Mean motion
15.34291006 rev/d
Perigee alt
459.1 km
Apogee alt
467.0 km
Semi-major
6,841.2 km
B*
2.7601e-4
RAAN
218.4450°
Arg perigee
252.1222°
Mean anomaly
107.8867°
Rev number
21,955

§ Raw data

YAOGAN-36 02B1 54043U 22133B   26263.93503603  .00009385  00000+0  27601-3 0  99982 54043  34.9944 218.4450 0005771 252.1222 107.8867 15.34291006219551

JSON: /api/v1/satellites/54043 · /tle

For live sub-satellite position, see the globe view (requires WebGL).

§ Visibility from observer

Set your observer location to see the next 7 days of passes ≥ 10°. The values pass through the URL so the page stays shareable.

No JS? Fill the form by hand. The geolocation button needs JavaScript.